GAOFEN 1-02

Satellite information

Favourite Embed

Satellite Type and Status

PAYLOADIN ORBIT

Key statistics

Satellite GAOFEN 1-02 at a glance.

Uptime

2598

Days in orbit

Revolutions

≈ 14.8

Per day

Orbit

SSO

Sun Synchronous Orbit

Inclination

97.8

Latest

Satellite identification and parameters

Extended collection of information and parameters for GAOFEN 1-02.

Object identification

Identified? True

Debris? False

Object name: GAOFEN 1-02

International designator: 2018-031A

Object number (NORAD): 43259

Object ID (CCSDS): 43259

Country: PEOPLES REPUBLIC OF CHINA (PRC)

Current information (Y/N): Y

RCS size: LARGE

Orbital parameters

Period: 97.521 minutes

Inclination: 97.7743 deg

SMA: 7018.183 km

Apoapsis: 643.196 km

Periapsis: 636.901 km

RAAN: 193.3578 deg

Eccentricy: 0.0004485

Argument of periapsis: 194.5827 deg

Mean anomaly: 165.5255 deg

Mean motion: 14.76609664 rev/day

Mean motion (dot): 0.00001003 rev/day2

B* drag term: 0.00015057 1/REarth

Two-line elements (TLE)

Creation date: May 11, 2025, 2:40 a.m.

Reference frame: TEME

Reference center: EARTH

Epoch: May 10, 2025, 10:53 p.m. UTC

TLE line 0: 0 GAOFEN 1-02

TLE line 1: 1 43259U 18031A 25130.95392039 .00001003 00000-0 15057-3 0 9992

TLE line 2: 2 43259 97.7743 193.3578 0004485 194.5827 165.5255 14.76609664383344

Live tracking on map

Real-time ground track for satellite GAOFEN 1-02.

In-orbit conjunctions

There are no conjunctions computed for GAOFEN 1-02, at the moment. Check back to stay up to date, as we update our databases every day.

Go to all conjunctions

Associated space launch

Gaofen is a series of Chinese civilian Earth observation satellites. These three satellites are to be operated together with the Gaofen-1 satellite, which was launched in 2013.

GAOFEN 1-02 was lifted into orbit during the mission ‘Long March 4C | Gaofen 1-02, 1-03 & 1-04’, on board a Long March 4C space rocket.

The launch took place on March 31, 2018, 3:22 a.m. from Launch Complex 9.

For more information about the launch, click the button.

Launch to space Long March 4C | Gaofen 1-02, 1-03 & 1-04
Long March 4C | Gaofen 1-02, 1-03 & 1-04

Agency: N/A

Status: Launch Successful

Launch date: March 31, 2018, 3:22 a.m. UTC

Rocket: Long March 4C

Launch pad: Launch Complex 9

Location: Taiyuan Satellite Launch Center, People's Republic of China

...

Latest news about this satellite

There are no fresh news available about this satellite. Check back as we update our databases every day.


Newsletter sign-up

Weekly statistics, charts and insights to help you stay on top of the space industry.